Content
SEND FEEDBACK

Daily
Averages
Monthly
Summary
United States of America

MOUNT JEWETT, PENNSYLVANIA


Home > North America > United States > Pennsylvania
Elevation: 1874 feet     Latitude: 41 44N     Longitude: 078 32W

WEATHER
 
SELECT A DAY
Number of Records: 261,355;   Date Range: 1/1/95 - 12/17/14
 
SHARE

PRINT THIS DATA

[ ← Previous Day ]
WEATHER ALMANAC - FEBRUARY 13, 2013
[ Next Day → ]
[ °C ]   °F
Weather ElementAverageHighLow
Temperature30 °F39 °F (3:53 pm)21.9 °F (12:53 am)
Dewpoint20.2 °F21.9 °F (11:53 am)18 °F (12:53 am)
Humidity68.4 %85 % (12:53 am)46 % (3:53 pm)
Barometer29.78 in29.92 in (12:53 am)29.67 in (3:53 pm)
Wind Speed2.7 mph9.2 mph (10:53 pm)
Weather ElementAverage
Visibility9 mi
Wind DirectionESE (117.8 °)

Weather ElementTotal
Precipitation---
Heating Degree Days34.6 (Base 65)
Averaged from 27 records on February 13, 2013
WEATHER CONDITIONS BREAKOUT
WIND DIRECTION BREAKOUT
WEATHER BY HOUR - FEBRUARY 13, 2013
[ °C ]   °F
Local TimeTemperatureDewpointHumidityBarometerVisibilityWind DirectionWind SpeedGust SpeedPrecipitationEventsConditions
12:53 AM21.9 °F18.0 °F85 %29.92 in7.0 miCalmOvercast
1:35 AM24.1 °F19.0 °F81 %29.84 in7.0 miCalmOvercast
1:53 AM24.1 °F19.9 °F84 %29.91 in7.0 miCalmOvercast
2:53 AM26.1 °F19.0 °F75 %29.89 in9.0 miSouth (170°)3.5 mphOvercast
3:45 AM26.1 °F19.9 °F78 %29.80 in9.0 miCalmOvercast
3:53 AM26.1 °F19.9 °F78 %29.86 in9.0 miSouth (180°)3.5 mphOvercast
4:53 AM26.1 °F19.9 °F78 %29.86 in9.0 miSouth (180°)3.5 mphOvercast
5:53 AM26.1 °F19.9 °F78 %29.86 in9.0 miCalmOvercast
6:53 AM27.0 °F19.9 °F75 %29.84 in8.0 miCalmOvercast
7:53 AM27.0 °F19.9 °F75 %29.83 in7.0 miCalmOvercast
8:53 AM28.0 °F21.0 °F75 %29.82 in8.0 miCalmOvercast
9:53 AM28.9 °F21.0 °F72 %29.80 in9.0 miNorth (360°)3.5 mphOvercast
10:11 AM30.9 °F21.0 °F67 %29.73 in9.0 miCalmScattered Clouds
10:53 AM32.0 °F21.0 °F64 %29.77 in9.0 miCalmClear
11:53 AM34.0 °F21.9 °F61 %29.77 in10.0 miCalmClear
12:53 PM37.0 °F21.9 °F54 %29.73 in10.0 miVariable5.8 mphClear
1:53 PM37.9 °F21.9 °F53 %29.71 in10.0 miSouth (190°)8.1 mphPartly Cloudy
2:53 PM37.9 °F19.9 °F48 %29.68 in10.0 miSouth (190°)5.8 mphClear
3:53 PM39.0 °F19.9 °F46 %29.67 in10.0 miCalmMostly Cloudy
4:53 PM37.0 °F19.0 °F48 %29.67 in10.0 miWest (270°)3.5 mphClear
5:53 PM36.0 °F19.9 °F52 %29.68 in10.0 miCalmClear
6:53 PM34.0 °F21.9 °F61 %29.70 in10.0 miNW (320°)6.9 mphMostly Cloudy
7:53 PM33.1 °F21.0 °F61 %29.72 in10.0 miNNW (340°)6.9 mphPartly Cloudy
8:53 PM30.9 °F19.9 °F64 %29.73 in10.0 miNNW (330°)5.8 mphClear
9:53 PM28.0 °F21.0 °F75 %29.75 in10.0 miNNW (330°)8.1 mphClear
10:53 PM26.1 °F19.9 °F78 %29.77 in8.0 miNW (320°)9.2 mphClear
11:53 PM24.1 °F19.0 °F81 %29.78 in8.0 miCalmClear
Hourly data recorded from KBFD, located miles away from Mount Jewett, Pennsylvania







STORIES FROM OUR PARTNERS